GW0101 Weather Reports


time (UTC)temp
C
wind
direction
speed
KPH
gust
KPH
rain 1hr
cm
rain 24hr
cm
rain mn
cm
humidity
%
barometer
mb
20260504201604 27 172 4.8 19.3 0.00 0.00 0.00 32 1016.2
20260504201103 27 192 1.6 9.7 0.00 0.00 0.00 35 1016.5
20260504195104 26 241 0.0 19.3 0.00 0.00 0.00 35 1016.7
20260504192604 27 187 3.2 11.3 0.00 0.00 0.00 36 1017.0
20260504192104 27 203 0.0 12.9 0.00 0.00 0.00 36 1017.2
20260504191604 27 205 0.0 12.9 0.00 0.00 0.00 40 1017.3
20260504190604 27 175 4.8 11.3 0.00 0.00 0.00 34 1017.3
20260504190104 27 251 3.2 11.3 0.00 0.00 0.00 35 1017.3
20260504185603 27 177 3.2 11.3 0.00 0.00 0.00 32 1017.3
20260504185103 27 100 0.0 8.0 0.00 0.00 0.00 37 1017.4
20260504184104 27 128 3.2 11.3 0.00 0.00 0.00 35 1017.6
20260504183104 28 291 1.6 9.7 0.00 0.00 0.00 38 1017.9
20260504182603 27 284 3.2 9.7 0.00 0.00 0.00 37 1017.9
20260504180604 26 129 0.0 4.8 0.00 0.00 0.00 40 1017.9
20260504175603 26 305 0.0 11.3 0.00 0.00 0.00 40 1018.2
20260504174604 26 174 1.6 8.0 0.00 0.00 0.00 36 1018.1
20260504174104 26 283 0.0 3.2 0.00 0.00 0.00 42 1018.3
20260504171103 25 206 3.2 9.7 0.00 0.00 0.00 41 1018.6
20260504170604 25 223 1.6 4.8 0.00 0.00 0.00 43 1018.7
20260504160104 23 328 0.0 3.2 0.00 0.00 0.00 47 1019.5
20260504150603 21 223 1.6 4.8 0.00 0.00 0.00 50 1019.8
20260504150104 20 242 0.0 12.9 0.00 0.00 0.00 52 1019.8
20260504141104 17 219 1.6 8.0 0.00 0.00 0.00 60 1020.0
20260504140604 16 285 0.0 4.8 0.00 0.00 0.00 62 1020.1
20260504140103 16 240 0.0 4.8 0.00 0.00 0.00 62 1020.0
20260504130604 11 220 0.0 3.2 0.00 0.00 0.00 78 1019.9
20260504120104 8 111 0.0 0.0 0.00 0.00 0.00 85 1019.8
20260504110604 8 284 0.0 0.0 0.00 0.00 0.00 82 1019.5
20260504110104 8 284 0.0 0.0 0.00 0.00 0.00 82 1019.5
20260504090104 9 284 0.0 0.0 0.00 0.00 0.00 78 1019.1
20260504080604 9 284 0.0 0.0 0.00 0.00 0.00 76 1018.9
20260504060104 11 284 0.0 0.0 0.00 0.00 0.00 69 1019.6
20260504050104 11 284 0.0 0.0 0.00 0.00 0.00 67 1019.7
20260504045603 11 284 0.0 0.0 0.00 0.00 0.00 67 1019.6
20260504044103 11 284 0.0 0.0 0.00 0.00 0.00 67 1019.6
20260504043604 11 284 0.0 0.0 0.00 0.00 0.00 67 1019.6
20260504043103 11 284 0.0 0.0 0.00 0.00 0.00 67 1019.7
20260504041106 12 284 0.0 0.0 0.00 0.00 0.00 66 1019.7
20260504035104 12 284 0.0 1.6 0.00 0.00 0.00 65 1019.8
20260504034104 12 284 0.0 1.6 0.00 0.00 0.00 64 1020.0
20260504033604 12 284 0.0 0.0 0.00 0.00 0.00 63 1020.0
20260504032105 12 284 0.0 0.0 0.00 0.00 0.00 62 1019.9
20260504030104 12 284 0.0 0.0 0.00 0.00 0.00 61 1019.8
20260504025104 13 284 0.0 0.0 0.00 0.00 0.00 59 1019.9
20260504024604 13 284 0.0 0.0 0.00 0.00 0.00 58 1019.9
20260504023604 13 284 0.0 0.0 0.00 0.00 0.00 58 1019.8
20260504022603 13 284 0.0 0.0 0.00 0.00 0.00 57 1019.7
20260504022103 13 284 0.0 0.0 0.00 0.00 0.00 57 1019.7
20260504021103 14 284 0.0 0.0 0.00 0.00 0.00 57 1019.6
20260504020604 14 284 0.0 0.0 0.00 0.00 0.00 56 1019.5
20260504015604 14 284 0.0 0.0 0.00 0.00 0.00 54 1019.4
20260504014103 15 284 0.0 0.0 0.00 0.00 0.00 53 1019.1
20260504013604 15 284 0.0 0.0 0.00 0.00 0.00 53 1019.2
20260504012104 15 284 0.0 0.0 0.00 0.00 0.00 51 1019.1
20260504011603 16 284 0.0 0.0 0.00 0.00 0.00 51 1019.0
20260504011104 16 283 0.0 0.0 0.00 0.00 0.00 50 1019.0
20260504010604 16 283 0.0 0.0 0.00 0.00 0.00 50 1018.9
20260504010104 16 283 0.0 0.0 0.00 0.00 0.00 49 1018.9
20260504005104 16 283 0.0 1.6 0.00 0.00 0.00 48 1018.6
20260504004603 16 283 0.0 1.6 0.00 0.00 0.00 48 1018.6
20260504003103 17 283 0.0 1.6 0.00 0.00 0.00 47 1018.5
20260504002104 17 283 0.0 1.6 0.00 0.00 0.00 46 1018.5
20260504001103 17 283 0.0 1.6 0.00 0.00 0.00 45 1018.3
20260504000603 17 283 0.0 1.6 0.00 0.00 0.00 44 1018.3
20260503234604 18 283 0.0 1.6 0.00 0.00 0.00 43 1018.3
20260503231604 18 277 0.0 4.8 0.00 0.00 0.00 42 1018.4
20260503231104 19 276 0.0 4.8 0.00 0.00 0.00 41 1018.4
20260503230604 19 275 0.0 4.8 0.00 0.00 0.00 41 1018.4
20260503225604 19 258 0.0 4.8 0.00 0.00 0.00 42 1018.5
20260503224604 19 286 1.6 11.3 0.00 0.00 0.00 40 1018.5
20260503223603 20 237 1.6 4.8 0.00 0.00 0.00 40 1018.4
20260503222604 20 285 0.0 3.2 0.00 0.00 0.00 39 1018.4
20260503222104 20 285 0.0 4.8 0.00 0.00 0.00 38 1018.4
20260503220604 21 267 1.6 4.8 0.00 0.00 0.00 38 1018.3
20260503213604 22 227 0.0 8.0 0.00 0.00 0.00 37 1018.5
20260503213105 22 147 1.6 4.8 0.00 0.00 0.00 36 1018.6
20260503212604 22 271 1.6 4.8 0.00 0.00 0.00 36 1018.5
20260503212104 23 289 1.6 4.8 0.00 0.00 0.00 37 1018.5
20260503210603 23 242 0.0 4.8 0.00 0.00 0.00 34 1018.8
20260503210104 23 292 1.6 8.0 0.00 0.00 0.00 35 1018.8
20260503205104 23 245 1.6 12.9 0.00 0.00 0.00 34 1018.9
20260503204604 23 272 1.6 9.7 0.00 0.00 0.00 36 1018.9